| time (UTC) | temp F | wind direction | speed knots | gust knots | rain 1hr in | rain 24hr in | rain mn in | humidity % | barometer mb |
| 20260506083020 | 64 | 120 | 0.0 | 6.1 | 0.00 | 0.00 | 0.00 | 53 | 1009.9 |
| 20260506081502 | 67 | 157 | 0.9 | 7.0 | 0.00 | 0.00 | 0.00 | 49 | 1009.8 |
| 20260506073045 | 68 | 89 | 0.0 | 0.0 | 0.00 | 0.00 | 0.00 | 46 | 1009.2 |
| 20260506071523 | 70 | 26 | 0.0 | 0.0 | 0.00 | 0.00 | 0.00 | 43 | 1009.3 |
| 20260506061546 | 69 | 281 | 3.5 | 5.2 | 0.00 | 0.00 | 0.00 | 45 | 1009.1 |
| 20260506044559 | 73 | 308 | 3.5 | 6.1 | 0.00 | 0.00 | 0.00 | 37 | 1008.7 |
| 20260506043051 | 73 | 300 | 5.2 | 7.8 | 0.00 | 0.00 | 0.00 | 37 | 1008.7 |
| 20260506041545 | 74 | 297 | 5.2 | 6.1 | 0.00 | 0.00 | 0.00 | 35 | 1008.6 |
| 20260506040033 | 75 | 298 | 5.2 | 7.0 | 0.00 | 0.00 | 0.00 | 34 | 1008.5 |
| 20260506034514 | 75 | 299 | 4.3 | 6.1 | 0.00 | 0.00 | 0.00 | 33 | 1008.4 |
| 20260506033014 | 77 | 304 | 3.5 | 5.2 | 0.00 | 0.00 | 0.00 | 31 | 1008.3 |
| 20260506031558 | 77 | 311 | 4.3 | 6.1 | 0.00 | 0.00 | 0.00 | 32 | 1008.2 |
| 20260506030055 | 79 | 339 | 0.0 | 0.0 | 0.00 | 0.00 | 0.00 | 31 | 1008.0 |
| 20260506024543 | 80 | 336 | 0.0 | 0.0 | 0.00 | 0.00 | 0.00 | 32 | 1008.0 |
| 20260506023044 | 82 | 264 | 0.0 | 0.0 | 0.00 | 0.00 | 0.00 | 30 | 1008.0 |
| 20260506021544 | 83 | 249 | 0.0 | 3.5 | 0.00 | 0.00 | 0.00 | 30 | 1008.0 |
| 20260506020042 | 83 | 195 | 0.0 | 4.3 | 0.00 | 0.00 | 0.00 | 31 | 1008.0 |
| 20260506014550 | 83 | 150 | 0.0 | 4.3 | 0.00 | 0.00 | 0.00 | 31 | 1008.0 |
| 20260506013041 | 83 | 127 | 0.0 | 5.2 | 0.00 | 0.00 | 0.00 | 30 | 1008.0 |
| 20260506011542 | 83 | 184 | 2.6 | 6.1 | 0.00 | 0.00 | 0.00 | 29 | 1008.0 |
| 20260506010040 | 83 | 195 | 3.5 | 7.8 | 0.00 | 0.00 | 0.00 | 30 | 1008.1 |
| 20260506004536 | 84 | 180 | 3.5 | 7.8 | 0.00 | 0.00 | 0.00 | 30 | 1008.1 |
| 20260506003021 | 84 | 140 | 0.0 | 8.7 | 0.00 | 0.00 | 0.00 | 25 | 1008.0 |
| 20260506001501 | 84 | 51 | 3.5 | 7.8 | 0.00 | 0.00 | 0.00 | 24 | 1008.1 |
| 20260506000002 | 84 | 93 | 7.0 | 10.4 | 0.00 | 0.00 | 0.00 | 24 | 1008.3 |
| 20260505234549 | 83 | 96 | 2.6 | 9.6 | 0.00 | 0.00 | 0.00 | 24 | 1008.4 |
| 20260505233047 | 84 | 86 | 11.3 | 13.9 | 0.00 | 0.00 | 0.00 | 24 | 1008.5 |
| 20260505231524 | 84 | 90 | 10.4 | 13.0 | 0.00 | 0.00 | 0.00 | 24 | 1008.5 |
| 20260505230026 | 84 | 113 | 6.1 | 13.9 | 0.00 | 0.00 | 0.00 | 26 | 1008.7 |
| 20260505224506 | 84 | 92 | 7.0 | 10.4 | 0.00 | 0.00 | 0.00 | 25 | 1008.8 |
| 20260505223007 | 83 | 101 | 2.6 | 9.6 | 0.00 | 0.00 | 0.00 | 27 | 1008.9 |
| 20260505221550 | 84 | 71 | 5.2 | 8.7 | 0.00 | 0.00 | 0.00 | 26 | 1009.1 |
| 20260505220044 | 83 | 94 | 8.7 | 13.9 | 0.00 | 0.00 | 0.00 | 26 | 1009.2 |
| 20260505214539 | 83 | 44 | 0.9 | 13.9 | 0.00 | 0.00 | 0.00 | 26 | 1009.3 |
| 20260505213033 | 83 | 90 | 9.6 | 11.3 | 0.00 | 0.00 | 0.00 | 26 | 1009.4 |
| 20260505211504 | 82 | 96 | 8.7 | 14.8 | 0.00 | 0.00 | 0.00 | 27 | 1009.5 |
| 20260505210001 | 81 | 65 | 7.0 | 13.9 | 0.00 | 0.00 | 0.00 | 28 | 1009.7 |
| 20260505204543 | 81 | 67 | 7.8 | 13.9 | 0.00 | 0.00 | 0.00 | 29 | 1009.8 |
| 20260505203046 | 81 | 89 | 10.4 | 14.8 | 0.00 | 0.00 | 0.00 | 28 | 1010.0 |
| 20260505201543 | 80 | 8 | 6.1 | 14.8 | 0.00 | 0.00 | 0.00 | 29 | 1010.0 |
| 20260505200029 | 81 | 74 | 12.2 | 15.6 | 0.00 | 0.00 | 0.00 | 30 | 1010.0 |
| 20260505194524 | 80 | 55 | 7.8 | 13.9 | 0.00 | 0.00 | 0.00 | 32 | 1010.1 |
| 20260505193039 | 80 | 43 | 9.6 | 19.1 | 0.00 | 0.00 | 0.00 | 31 | 1010.1 |
| 20260505191522 | 79 | 28 | 8.7 | 14.8 | 0.00 | 0.00 | 0.00 | 32 | 1010.3 |
| 20260505190029 | 78 | 41 | 11.3 | 17.4 | 0.00 | 0.00 | 0.00 | 32 | 1010.2 |
| 20260505184519 | 77 | 3 | 9.6 | 16.5 | 0.00 | 0.00 | 0.00 | 33 | 1010.4 |
| 20260505183017 | 77 | 60 | 10.4 | 17.4 | 0.00 | 0.00 | 0.00 | 34 | 1010.4 |
| 20260505181557 | 75 | 51 | 10.4 | 16.5 | 0.00 | 0.00 | 0.00 | 35 | 1010.5 |
| 20260505180053 | 75 | 65 | 11.3 | 16.5 | 0.00 | 0.00 | 0.00 | 36 | 1010.4 |
| 20260505174538 | 75 | 36 | 12.2 | 18.2 | 0.00 | 0.00 | 0.00 | 36 | 1010.5 |
| 20260505173037 | 73 | 41 | 13.0 | 20.0 | 0.00 | 0.00 | 0.00 | 37 | 1010.5 |
| 20260505171609 | 73 | 23 | 11.3 | 18.2 | 0.00 | 0.00 | 0.00 | 37 | 1010.5 |
| 20260505170012 | 72 | 54 | 11.3 | 15.6 | 0.00 | 0.00 | 0.00 | 38 | 1010.5 |
| 20260505164548 | 72 | 43 | 13.0 | 18.2 | 0.00 | 0.00 | 0.00 | 38 | 1010.4 |
| 20260505163046 | 71 | 30 | 12.2 | 14.8 | 0.00 | 0.00 | 0.00 | 39 | 1010.4 |
| 20260505161525 | 70 | 46 | 10.4 | 15.6 | 0.00 | 0.00 | 0.00 | 41 | 1010.2 |
| 20260505153111 | 67 | 81 | 10.4 | 17.4 | 0.00 | 0.00 | 0.00 | 46 | 1010.1 |
| 20260505151546 | 67 | 91 | 13.0 | 15.6 | 0.00 | 0.00 | 0.00 | 46 | 1010.0 |
| 20260505124608 | 62 | 40 | 4.3 | 7.8 | 0.00 | 0.00 | 0.00 | 54 | 1008.4 |
| 20260505123104 | 62 | 16 | 5.2 | 9.6 | 0.00 | 0.00 | 0.00 | 54 | 1008.2 |
| 20260505121540 | 61 | 4 | 7.0 | 10.4 | 0.00 | 0.00 | 0.00 | 57 | 1008.0 |
| 20260505120021 | 60 | 4 | 8.7 | 11.3 | 0.00 | 0.00 | 0.00 | 59 | 1008.0 |
| 20260505114517 | 59 | 354 | 8.7 | 11.3 | 0.00 | 0.00 | 0.00 | 62 | 1007.8 |
| 20260505113058 | 59 | 349 | 8.7 | 10.4 | 0.00 | 0.00 | 0.00 | 64 | 1007.8 |
| 20260505111602 | 59 | 22 | 3.5 | 4.3 | 0.00 | 0.00 | 0.00 | 63 | 1007.6 |
| 20260505101520 | 62 | 82 | 5.2 | 5.2 | 0.00 | 0.00 | 0.00 | 58 | 1006.5 |
| 20260505100005 | 63 | 353 | 7.0 | 7.8 | 0.00 | 0.00 | 0.00 | 57 | 1006.4 |
| 20260505094501 | 63 | 336 | 0.0 | 0.0 | 0.00 | 0.00 | 0.00 | 57 | 1006.3 |
| 20260505093048 | 62 | 262 | 0.0 | 0.0 | 0.00 | 0.00 | 0.00 | 57 | 1006.2 |
| 20260505091548 | 63 | 25 | 0.0 | 1.7 | 0.00 | 0.00 | 0.00 | 56 | 1006.2 |
| 20260505090042 | 63 | 58 | 3.5 | 4.3 | 0.00 | 0.00 | 0.00 | 55 | 1005.9 |
| 20260505084527 | 67 | 352 | 0.9 | 3.5 | 0.00 | 0.00 | 0.00 | 47 | 1005.8 |